This demonstration page uses our WeatherBlox Daily Observations layout. Learn more.

Left ArrowRight Arrow

Hourly Observations for June 1, 2021

Temp ( °F °C ) Dew Point ( °F °C ) Humidity (%) Winds ( mph kmh ) Pressure ( in mb ) Visibility ( mi km ) Precip ( " mm )
12:15 am 00:15 Clear 57 14.1 53 11.4 84 84 N N/A 30.19 1022 10 16 N/A
12:35 am 00:35 Clear 57 13.8 52 11.3 85 85 N N/A 30.19 1022 10 16 N/A
12:55 am 00:55 Clear 56 13.5 53 11.5 88 88 SSW 3 6 30.19 1022 10 16 N/A
1:15 am 01:15 Clear 56 13.6 53 11.5 87 87 N N/A 30.19 1022 10 16 N/A
1:35 am 01:35 Clear 56 13.5 53 11.5 88 88 N N/A 30.18 1022 10 16 N/A
1:55 am 01:55 Clear 56 13.5 53 11.7 89 89 N N/A 30.18 1022 10 16 N/A
2:15 am 02:15 Clear 56 13.3 53 11.8 91 91 S 3 6 30.18 1022 10 16 N/A
2:35 am 02:35 Clear 55 12.9 52 11.3 90 90 SSW 3 6 30.18 1022 10 16 N/A
2:55 am 02:55 Clear 55 13 53 11.7 92 92 SW 3 6 30.18 1022 10 16 N/A
3:15 am 03:15 Clear 55 13 53 11.9 93 93 N N/A 30.18 1022 10 16 N/A
3:35 am 03:35 Clear 55 13 53 11.6 91 91 N N/A 30.18 1022 10 16 N/A
3:55 am 03:55 Clear 55 12.9 53 11.8 93 93 N N/A 30.18 1022 10 16 N/A
4:15 am 04:15 Clear 56 13.1 53 11.9 93 93 N N/A 30.18 1022 10 16 N/A
4:35 am 04:35 Clear 56 13.2 53 11.9 92 92 W 3 6 30.17 1022 10 16 N/A
4:55 am 04:55 Clear 56 13.2 53 11.9 92 92 W 5 7 30.17 1022 10 16 N/A
5:15 am 05:15 Clear 55 12.7 53 11.6 93 93 W 5 7 30.18 1022 10 16 N/A
5:35 am 05:35 Clear 54 12.4 52 11.3 93 93 N N/A 30.18 1022 10 16 N/A
5:55 am 05:55 Clear 54 12 52 10.9 93 93 W 3 6 30.19 1022 10 16 N/A
6:15 am 06:15 Sunny 53 11.9 51 10.8 93 93 WNW 3 6 30.19 1022 10 16 N/A
6:35 am 06:35 Sunny 53 11.5 51 10.6 94 94 N N/A 30.19 1022 10 16 N/A
6:55 am 06:55 Sunny 52 11 51 10.3 95 95 N N/A 30.18 1022 10 16 N/A
7:15 am 07:15 Sunny 51 10.7 50 10.1 96 96 N N/A 30.19 1022 7 11 N/A
7:35 am 07:35 Sunny 54 12 52 11.2 95 95 N N/A 30.18 1022 10 16 N/A
7:55 am 07:55 Sunny 53 11.9 52 11 94 94 N N/A 30.18 1022 10 16 N/A
8:15 am 08:15 Sunny 58 14.3 55 12.7 90 90 N N/A 30.16 1021 10 16 N/A
8:35 am 08:35 Sunny 60 15.8 56 13.4 86 86 N N/A 30.14 1021 10 16 N/A
8:55 am 08:55 Sunny 62 16.7 56 13.5 82 82 N N/A 30.14 1021 10 16 N/A
9:15 am 09:15 Sunny 63 17.4 55 12.7 74 74 N N/A 30.14 1021 10 16 N/A
9:35 am 09:35 Sunny 64 17.9 53 11.5 66 66 N N/A 30.13 1020 10 16 N/A
9:55 am 09:55 Sunny 65 18.1 53 11.6 66 66 E 6 9 30.13 1020 10 16 N/A
10:15 am 10:15 Partly Cloudy 65 18.4 52 11.1 63 63 ESE 5 7 30.13 1020 10 16 N/A
10:35 am 10:35 Partly Cloudy 66 18.7 53 11.4 63 63 SE 7 11 30.13 1020 10 16 N/A
10:55 am 10:55 Partly Cloudy 67 19.2 53 11.4 61 61 ESE 5 7 30.12 1020 10 16 N/A
11:15 am 11:15 Partly Cloudy 66 19 52 11.2 61 61 N N/A 30.13 1020 10 16 N/A
11:35 am 11:35 Sunny 68 20 52 10.9 56 56 SE 6 9 30.11 1020 10 16 N/A
11:55 am 11:55 Partly Cloudy 68 20 51 10.6 55 55 S 5 7 30.11 1020 10 16 N/A
12:15 pm 12:15 Partly Cloudy 67 19.7 51 10.3 55 55 SE 3 6 30.10 1019 10 16 N/A
12:35 pm 12:35 Partly Cloudy 70 21.2 51 10.5 51 51 SE 6 9 30.08 1019 10 16 N/A
12:55 pm 12:55 Partly Cloudy 70 21.3 49 9.6 47 47 SSE 7 11 30.08 1018 10 16 N/A
1:15 pm 13:15 Partly Cloudy 69 20.8 50 9.9 50 50 ESE 7 11 30.07 1018 10 16 N/A
1:35 pm 13:35 Partly Cloudy 69 20.8 50 9.9 50 50 N N/A 30.06 1018 10 16 N/A
1:55 pm 13:55 Partly Cloudy 71 21.8 48 8.8 44 44 SE 10 17 30.05 1018 10 16 N/A
2:15 pm 14:15 Sunny 70 21.2 48 8.8 45 45 ESE 9 15 30.05 1018 10 16 N/A
2:35 pm 14:35 Partly Cloudy 72 22.1 47 8.3 41 41 SE 13 20 30.04 1017 10 16 N/A
2:55 pm 14:55 Partly Cloudy 72 22.1 47 8.4 42 42 E 7 11 30.03 1017 10 16 N/A
3:15 pm 15:15 Partly Cloudy 72 22.4 48 9 43 43 ESE 10 17 30.03 1017 10 16 N/A
3:35 pm 15:35 Partly Cloudy 72 22.4 47 8.2 40 40 E 10 17 30.02 1016 10 16 N/A
3:55 pm 15:55 Mostly Cloudy 71 21.9 44 6.4 37 37 SE 9 15 30.02 1017 10 16 N/A
4:15 pm 16:15 Partly Cloudy 73 22.6 43 6 34 34 ESE 6 9 30.01 1016 10 16 N/A
4:35 pm 16:35 Sunny 73 22.5 44 6.7 36 36 SSE 6 9 30.01 1016 10 16 N/A
4:55 pm 16:55 Mostly Cloudy 73 23 46 7.7 38 38 E 12 19 29.99 1016 10 16 N/A
5:15 pm 17:15 Partly Cloudy 73 23 45 7.2 36 36 SSE 6 9 29.98 1015 10 16 N/A
5:35 pm 17:35 Mostly Cloudy 73 23 44 6.8 35 35 SE 8 13 29.98 1015 10 16 N/A
5:55 pm 17:55 Partly Cloudy 73 22.5 44 6.5 36 36 SE 7 11 29.98 1015 10 16 N/A
6:15 pm 18:15 Partly Cloudy 72 22.2 43 6.2 36 36 E 7 11 29.98 1015 10 16 N/A
6:35 pm 18:35 Sunny 72 22.1 44 6.7 37 37 SE 9 15 29.97 1015 10 16 N/A
6:55 pm 18:55 Sunny 72 22.3 43 6.3 36 36 ESE 6 9 29.97 1015 10 16 N/A
7:15 pm 19:15 Sunny 72 22.1 42 5.8 35 35 SE 6 9 29.97 1015 10 16 N/A
7:35 pm 19:35 Sunny 71 21.5 43 5.9 36 36 ESE 7 11 29.97 1015 10 16 N/A
7:55 pm 19:55 Sunny 71 21.5 43 6.1 37 37 SE 8 13 29.98 1015 10 16 N/A
8:15 pm 20:15 Sunny 69 20.6 45 7 41 41 ESE 7 11 29.99 1016 10 16 N/A
8:35 pm 20:35 Sunny 67 19.5 48 9 51 51 SE 6 9 30.00 1016 10 16 N/A
8:55 pm 20:55 Sunny 65 18.2 49 9.4 57 57 SE 7 11 30.01 1016 10 16 N/A
9:15 pm 21:15 Clear 63 17.1 49 9.6 62 62 SE 7 11 30.03 1017 10 16 N/A
9:35 pm 21:35 Clear 62 16.8 49 9.3 61 61 ESE 7 11 30.03 1017 10 16 N/A
9:55 pm 21:55 Clear 61 15.9 49 9.4 66 66 SE 6 9 30.04 1017 10 16 N/A
10:15 pm 22:15 Clear 61 16.1 48 9 63 63 SSE 3 6 30.04 1017 10 16 N/A
10:35 pm 22:35 Clear 61 15.9 47 8.6 62 62 SE 3 6 30.05 1018 10 16 N/A
10:55 pm 22:55 Clear 58 14.6 49 9.2 70 70 SSE 5 7 30.06 1018 10 16 N/A
11:15 pm 23:15 Clear 58 14.7 48 8.7 68 68 S 3 6 30.06 1018 10 16 N/A
11:35 pm 23:35 Clear 58 14.5 47 8.5 67 67 SSE 5 7 30.05 1018 10 16 N/A
11:55 pm 23:55 Clear 58 14.2 47 8.4 68 68 SSE 5 7 30.06 1018 10 16 N/A

Powered by AerisWeather